User: anonymous   Login
Location: Unspecified
(0.0000°N, 0.0000°E)
Time: 21:43:08
(UTC+00:00)
Language:

COSMOS 2453 - Orbit

View from above orbital plane
View from above orbital plane
View from above satellite
View from above satellite

Ground track
Ground track

The orbit data is extracted from the following two-line orbital elements,

1 35500U 09036C   17117.73880141 +.00000033 +00000-0 +16948-3 0  9997
2 35500 082.4922 001.0939 0005885 224.5677 135.4928 12.41451127353970
Epoch (UTC): 27 April 2017 17:43:52
Eccentricity: 0.0005885
inclination: 82.4922°
perigee height: 1496 km
apogee height: 1505 km
right ascension of ascending node: 1.0939°
argument of perigee: 224.5677°
revolutions per day: 12.41451127
mean anomaly at epoch: 135.4928°
orbit number at epoch: 35397

The dashed part of the orbit path shows where the satellite is in the earth's shadow,  

DLR